Fort Stockton, TX

1:03 AM CDT on July 24, 2017 (GMT -0500)
Fort Stockton-Pecos County

Weather History for KFST - August, 2012

Change the Weather History Date:

Tuesday, August 7, 2012

  Actual Average Record
Temperature  
Mean Temperature 86 °F -  
Max Temperature 100 °F 92 °F 102 °F (2003)
Min Temperature 72 °F 69 °F 64 °F (1997)
Cooling Degree Days 20    
Growing Degree Days 36 (Base 50)    
Moisture  
Dew Point 53 °F    
Average Humidity 34    
Maximum Humidity 59    
Minimum Humidity 17    
Precipitation  
Precipitation 0.00 in - - ()
Sea Level Pressure  
Sea Level Pressure 29.90 in    
Wind  
Wind Speed 8 mph (SSE)    
Max Wind Speed 15 mph    
Max Gust Speed 25 mph    
Visibility 10 miles    
Events      
Averages and records for this station are not official NWS values.
T = Trace of Precipitation, MM = Missing Value Source: NWS Daily Summary

Daily Weather History Graph

Daily Weather History Graph

Search for Another Location

Airport or City:

Trip Planner

Search our weather history database for the weather conditions in past years. The results will help you decide how hot, cold, wet, or windy it might be!

Date:

Astronomy

Aug. 07, 2012 Rise Set
Actual Time 7:13 AM CDT 8:41 PM CDT
Civil Twilight 6:47 AM CDT 9:06 PM CDT
Nautical Twilight 6:16 AM CDT 9:37 PM CDT
Astronomical Twilight 5:44 AM CDT 10:09 PM CDT
Moon 11:53 PM CDT (8/7) 12:33 PM CDT (8/7)
Length of Visible Light 14h 19m
Length of Day
13h 28m
Waning Gibbous, 69% of the Moon is Illuminated
Aug 7
Waning Gibbous
Aug 9
Last Quarter
Aug 17
New
Aug 24
First Quarter
Aug 31
Full

Hourly Weather History & Observations

Time (CDT) Temp. Heat Index Dew Point Humidity Pressure Visibility Wind Dir Wind Speed Gust Speed Precip Events Conditions
12:53 AM 81.0 °F 80.8 °F 55.9 °F 42% 29.93 in 10.0 mi South 9.2 mph - N/A   Clear
1:53 AM 80.1 °F 80.1 °F 55.0 °F 42% 29.93 in 10.0 mi South 6.9 mph - N/A   Clear
2:53 AM 79.0 °F - 55.9 °F 45% 29.93 in 10.0 mi South 8.1 mph - N/A   Clear
3:53 AM 75.9 °F - 57.0 °F 52% 29.92 in 10.0 mi South 5.8 mph - N/A   Clear
4:53 AM 75.0 °F - 57.0 °F 53% 29.91 in 10.0 mi South 8.1 mph - N/A   Clear
5:53 AM 75.0 °F - 57.0 °F 53% 29.91 in 10.0 mi South 6.9 mph - N/A   Clear
6:53 AM 72.0 °F - 57.0 °F 59% 29.94 in 10.0 mi South 6.9 mph - N/A   Clear
7:53 AM 73.9 °F - 57.9 °F 57% 29.95 in 10.0 mi South 8.1 mph - N/A   Clear
8:53 AM 81.0 °F 81.3 °F 59.0 °F 47% 29.96 in 10.0 mi South 6.9 mph - N/A   Clear
9:53 AM 84.9 °F 84.8 °F 60.1 °F 43% 29.95 in 10.0 mi SW 6.9 mph - N/A   Clear
10:53 AM 89.1 °F 87.3 °F 55.9 °F 32% 29.95 in 10.0 mi Variable 3.5 mph - N/A   Clear
11:53 AM 91.9 °F 90.3 °F 55.9 °F 30% 29.94 in 10.0 mi ESE 4.6 mph - N/A   Clear
12:53 PM 93.9 °F - 50.0 °F 22% 29.92 in 10.0 mi ESE 9.2 mph - N/A   Clear
1:53 PM 97.0 °F - 48.9 °F 19% 29.90 in 10.0 mi East 9.2 mph - N/A   Clear
2:53 PM 98.1 °F - 46.0 °F 17% 29.88 in 10.0 mi Variable 4.6 mph 19.6 mph N/A   Clear
3:53 PM 99.0 °F - 46.9 °F 17% 29.86 in 10.0 mi ESE 15.0 mph 23.0 mph N/A   Clear
4:53 PM 99.0 °F - 46.9 °F 17% 29.84 in 10.0 mi ESE 13.8 mph 25.3 mph N/A   Partly Cloudy
5:53 PM 97.0 °F - 46.0 °F 18% 29.83 in 10.0 mi Variable 6.9 mph - N/A   Clear
6:53 PM 97.0 °F - 46.9 °F 18% 29.83 in 10.0 mi ESE 13.8 mph 18.4 mph N/A   Clear
7:53 PM 95.0 °F - 46.9 °F 19% 29.83 in 10.0 mi ESE 10.4 mph - N/A   Clear
8:53 PM 91.9 °F - 50.0 °F 24% 29.83 in 10.0 mi SE 8.1 mph - N/A   Clear
9:53 PM 89.1 °F - 50.0 °F 26% 29.84 in 10.0 mi SSE 8.1 mph - N/A   Clear
10:53 PM 84.9 °F - 50.0 °F 30% 29.86 in 10.0 mi South 9.2 mph - N/A   Clear
11:53 PM 84.0 °F - 48.0 °F 28% 29.87 in 10.0 mi South 8.1 mph - N/A   Clear